Location: Opole
(50.6667°N, 17.9333°E)
Time: 18:52:08
(UTC+01:00)

ISS - Visible Passes

Search period start: 14 December 2018 00:00
Search period end: 24 December 2018 00:00
Orbit: 401 x 408 km, 51.6° (Epoch: 15 December)

Date Brightness Start Highest point End Pass type
(mag) Time Alt. Az. Time Alt. Az. Time Alt. Az.
14 Dec -0.3 17:16:38 10° WSW 17:17:33 11° SW 17:18:28 10° SSW visible
15 Dec -0.7 16:23:24 10° W 16:25:39 18° SW 16:27:55 10° S visible
22 Dec -0.6 07:05:57 10° S 07:08:03 16° SE 07:10:10 10° E visible
